THORAD DELTA 1 DEB, 42613

Orbit data source: Space-Track

THORAD DELTA 1 DEB, 42613 is space debris in SSO originally from a launch on Fri, 15 Nov 1974 UTC launched from the Air Force Western Test Range (AFWTR). Debris objects in space refer to the collection of defunct objects orbiting the Earth. Examples of debris include non-operational satellites, rocket bodies, and fragments generated from explosions, collisions, or faulty payload assembly.

Loading next visibility...
Identifier
42613, 1974-089GE
Orbit
SSO
Country
Flag of USUS
Related business
Manufacturer
Unknown
Mission
Spacecraft
Bus & Motor
Unknown
Mass
Unknown
Launch date (UTC)
1974-11-15 (51 years ago)
Launch vehicle
Unknown
Launch site
Air Force Western Test Range (AFWTR)
Object type
Payload
Rocket body
Debris
Shape & HBR
Unknown
Radar Cross Section
Small (<0.1 m²)

Expand to show TLE details & history
Last TLE update: 1 week ago

TLE from 1 week ago
0 THORAD DELTA 1 DEB
1 42613U 74089GE  25252.22063955 -.00000040  00000-0  46181-4 0  9991
2 42613 102.2549 252.2142 0067311 344.3066  80.1052 12.43770038536491
Epoch: 2025-09-09T05:17Z
TLE epoch observation values (Epoch: 2025-09-09T05:17:43.257Z)
Latitude
62.57433°
Longitude
159.65352°
Altitude
1,492.444 km
Speed
7.127 km/s
True Right ascension
15h 10m 23s
True Declination
62° 26' 48"
Sunlit
Object was in daylight at epoch
Visualization orbit readout
Latitude
Unknown
Longitude
Unknown
Altitude
Unknown
Speed
Unknown
Apparent Right ascension
Unknown
Apparent Declination
Unknown
Sunlit
N/A
Visualization observer readout
Local Sidereal Time
15:05:07
Azimuth
Unknown
Elevation
Unknown
Doppler factor
Unknown
Orbital elements
Apogee altitude
1,541.196 km
Perigee altitude
1,435.297 km
Semi-major axis
7,866.384 km
Eccentricity
0.00673
Inclination
102.2549°
RAAN
252.2142°
Arg. of periapsis
344.3066°
True anomaly
80.86613°
Mean anomaly
80.1052°
Eccentric anomaly
80.48556°
Mean motion
3.11086 °/min
Orbital period
115.72 mins
BSTAR
0.000046181
Loading maneuver chart data...
Computing Atmospheric mass density...

Documentation

Showing up to 5 results
|